User: anonymous   Login
Location: Unspecified
(0.0000°N, 0.0000°E)
Time: 06:14:55
(UTC+00:00)
Language:

LIBERTAD 1 - Orbit

View from above orbital plane
View from above orbital plane
View from above satellite
View from above satellite

Ground track
Ground track

The orbit data is extracted from the following two-line orbital elements,

1 31128U 07012M   19083.53629268  .00000105  00000-0  33014-4 0  9998
2 31128  98.1561  24.7797 0096655 359.1120   0.9892 14.56071426633337
Epoch (UTC): 24 March 2019 12:52:15
Eccentricity: 0.0096655
inclination: 98.1561°
perigee height: 637 km
apogee height: 774 km
right ascension of ascending node: 24.7797°
argument of perigee: 359.1120°
revolutions per day: 14.56071426
mean anomaly at epoch: 0.9892°
orbit number at epoch: 63333

The dashed part of the orbit path shows where the satellite is in the earth's shadow,  

DLR